Home   Weather   Onex   Past weeks

Flag for Switzerland Past Weather in Onex, Geneva, Switzerland — Yesterday and Last 2 Weeks

Now
27 °F

Partly sunny.


Feels Like: 16 °F
Forecast: 15 / 32 °F
Wind: 13 mph from Northeast

Location: Geneva Cointrin Airport

Current Time: Jan 18, 2017 at 1:03:17 pm

Latest Report: Jan 18, 2017 at 12:20 pm


Visibility: N/A

Pressure: 30.30 "Hg

Humidity: 69%

Dew Point: 18 °F

Location of OnexLocation

Past Weather in Onex — Graph

°F

Onex Temperature Yesterday

Maximum temperature yesterday: 28 °F (at 7:50 am)
Minimum temperature yesterday: 27 °F (at 12:20 am)
Average temperature yesterday: 27 °F

High & Low Weather Summary for the Past Weeks

 TemperatureHumidityPressure
High45 °F (Jan 12, 1:50 pm)100% (Jan 4, 2:50 am)30.54 "Hg (Jan 4, 2:50 am)
Low18 °F (Jan 7, 8:20 am)42% (Jan 5, 12:50 pm)29.65 "Hg (Jan 12, 10:50 pm)
Average31 °F79%30.18 "Hg
* Reported Jan 3 11:20 am — Jan 18 11:50 am, Onex, Weather by CustomWeather, © 2017

Note: Actual official high and low records may vary slightly from our data, if they occured in-between our weather recording intervals... More about our weather records

Advertising

Onex Weather History for the Previous 24 Hours

Scroll right to see more
 ConditionsComfort  
Time TempWeatherWind HumidityBarometerVisibility
11:50 am
Wed, Jan 18
27 °FPartly sunny.15 mph69%30.30 "HgN/A
11:20 am27 °FPartly sunny.15 mph69%30.30 "HgN/A
10:50 am27 °FPartly sunny.12 mph69%30.30 "HgN/A
10:20 am25 °FPartly sunny.15 mph69%30.30 "HgN/A
9:50 am25 °FPartly sunny.15 mph69%30.30 "HgN/A
9:20 am25 °FBroken clouds.15 mph69%30.30 "HgN/A
8:50 am25 °FBroken clouds.13 mph69%30.30 "HgN/A
8:20 am25 °FBroken clouds.13 mph69%30.27 "HgN/A
7:50 am25 °FPartly cloudy.13 mph69%30.27 "HgN/A
7:20 am25 °FPartly cloudy.13 mph69%30.27 "HgN/A
6:50 am25 °FPartly cloudy.14 mph69%30.27 "HgN/A
6:20 am25 °FPartly cloudy.15 mph69%30.24 "HgN/A
5:50 am25 °FPassing clouds.15 mph74%30.24 "HgN/A
5:20 am25 °FOvercast.15 mph69%30.24 "HgN/A
4:50 am25 °FPassing clouds.15 mph74%30.24 "HgN/A
4:20 am27 °FOvercast.17 mph69%30.24 "HgN/A
3:50 am27 °FOvercast.15 mph64%30.24 "HgN/A
3:20 am27 °FPassing clouds.15 mph69%30.24 "HgN/A
2:50 am27 °FPassing clouds.14 mph69%30.24 "HgN/A
2:20 am27 °FPassing clouds.14 mph69%30.24 "HgN/A
1:50 am27 °FPassing clouds.14 mph69%30.24 "HgN/A
1:20 am27 °FPassing clouds.15 mph69%30.24 "HgN/A
12:50 am27 °FPassing clouds.14 mph69%30.24 "HgN/A
12:20 am27 °FPassing clouds.13 mph69%30.24 "HgN/A
11:50 pm
Tue, Jan 17
27 °FPassing clouds.16 mph69%30.24 "HgN/A
11:20 pm27 °FPassing clouds.16 mph69%30.24 "HgN/A
10:50 pm27 °FPassing clouds.16 mph74%30.24 "HgN/A
10:20 pm27 °FPassing clouds.16 mph69%30.21 "HgN/A
9:50 pm27 °FPassing clouds.17 mph69%30.21 "HgN/A
9:20 pm27 °FPassing clouds.17 mph69%30.21 "HgN/A
8:50 pm27 °FPassing clouds.21 mph69%30.21 "HgN/A
8:20 pm27 °FPassing clouds.22 mph69%30.21 "HgN/A
7:50 pm27 °FPassing clouds.23 mph69%30.21 "HgN/A
7:20 pm27 °FPassing clouds.25 mph69%30.21 "HgN/A
6:50 pm27 °FPassing clouds.24 mph69%30.18 "HgN/A
6:20 pm27 °FPassing clouds.22 mph69%30.18 "HgN/A
5:50 pm27 °FPassing clouds.25 mph69%30.18 "HgN/A
5:20 pm27 °FPassing clouds.25 mph69%30.18 "HgN/A
4:50 pm28 °FPartly sunny.26 mph64%30.15 "HgN/A
4:20 pm28 °FPartly sunny.23 mph64%30.15 "HgN/A
3:50 pm28 °FPartly sunny.25 mph64%30.15 "HgN/A
3:20 pm28 °FPartly sunny.25 mph69%30.15 "HgN/A
2:50 pm28 °FPartly sunny.24 mph64%30.15 "HgN/A
2:20 pm28 °FBroken clouds.28 mph64%30.15 "HgN/A
1:50 pm28 °FBroken clouds.26 mph69%30.15 "HgN/A
1:20 pm28 °FPartly sunny.30 mph64%30.15 "HgN/A
Weather by CustomWeather, © 2017

See weather overviewHow to use our weather pages